Flag for Peru Weather past 2 weeks in Arequipa, Arequipa, Peru

Now
54 °F

Clear.


Feels Like: 52 °F
Forecast: 53 / 75 °F
Wind: 7 mph from Northeast

Location: Arequipa Airport

Current Time: Jun 2, 2015 at 12:26:48 AM

Latest Report: Jun 2, 2015 at 12:00 AM


Visibility: 10 mi

Pressure: 30.33 "Hg

Humidity: 22%

Dew point: 16 °F

Location of ArequipaLocation

Historic Weather in Arequipa — Graph

°F

Arequipa temperature yesterday

Maximum temperature yesterday: 70 °F (at 12:00 PM)
Minimum temperature yesterday: 46 °F (at 6:00 AM)
Average temperature yesterday: 62 °F

Past Weeks' High & Low Weather Summary

 TemperatureHumidityPressure
High73 °F (May 19, 11:00 AM)88% (May 19, 3:00 AM)30.42 "Hg (May 19, 3:00 AM)
Low45 °F (May 23, 3:00 AM)7% (May 20, 9:00 AM)30.24 "Hg (May 29, 2:00 PM)
Average59 °F26%30.33 "Hg
* Reported May 17 10:00 PM — Jun 1 10:00 PM, Arequipa, Weather by CustomWeather, © 2015

Note: Actual official high and low records may vary slightly from our data, if they occured in-between our weather recording intervals... More about our weather records

Advertising

Arequipa weather history for previous 24 hours

 ConditionsComfort  
Time TempWeatherWind HumidityBarometerVisibility
10:00 PM
Mon, Jun 1
57 °FClear.7 mph20%30.33 "Hg10 mi
9:00 PM57 °FClear.6 mph20%30.33 "Hg10 mi
8:00 PM57 °FClear.7 mph21%30.33 "Hg10 mi
7:00 PM57 °FClear.8 mph25%30.33 "Hg10 mi
6:00 PM59 °FClear.3 mph45%30.33 "Hg10 mi
5:00 PM64 °FSunny.6 mph32%30.30 "Hg10 mi
4:00 PM66 °FSunny.8 mph19%30.30 "Hg10 mi
3:00 PM68 °FPassing clouds.12 mph16%30.30 "HgN/A
2:00 PM70 °FPassing clouds.10 mph12%30.30 "HgN/A
1:00 PM70 °FPassing clouds.8 mph12%30.33 "HgN/A
12:00 PM70 °FPassing clouds.8 mph10%30.36 "HgN/A
11:00 AM68 °FPassing clouds.7 mph12%30.36 "HgN/A
10:00 AM66 °FPassing clouds.5 mph14%30.36 "HgN/A
9:00 AM66 °FSunny.3 mph13%30.36 "Hg10 mi
8:00 AM61 °FSunny.3 mph17%30.36 "Hg10 mi
7:00 AM50 °FSunny.3 mph24%30.33 "Hg10 mi
6:00 AM46 °FClear.8 mph29%30.33 "Hg10 mi
Weather by CustomWeather, © 2015

See weather overviewHow to use our weather pages